Year,Month,Day,Hour,Minute,Value (Times are PST for insolation in W/m^2)
2008,12,23,00,00,0.00
2008,12,23,00,01,0.00
2008,12,23,00,02,0.00
2008,12,23,00,03,0.00
2008,12,23,00,04,0.00
2008,12,23,00,05,0.00
2008,12,23,00,06,0.00
2008,12,23,00,07,0.00
2008,12,23,00,08,0.00
2008,12,23,00,09,0.00
2008,12,23,00,10,0.00
2008,12,23,00,11,0.00
2008,12,23,00,12,0.00
2008,12,23,00,13,0.00
2008,12,23,00,14,0.00
2008,12,23,00,15,0.00
2008,12,23,00,16,0.00
2008,12,23,00,17,0.00
2008,12,23,00,18,0.00
2008,12,23,00,19,0.00
2008,12,23,00,20,0.00
2008,12,23,00,21,0.00
2008,12,23,00,22,0.00
2008,12,23,00,23,0.00
2008,12,23,00,24,0.00
2008,12,23,00,25,0.00
2008,12,23,00,26,0.00
2008,12,23,00,27,0.00
2008,12,23,00,28,0.00
2008,12,23,00,29,0.00
2008,12,23,00,30,0.00
2008,12,23,00,31,0.00
2008,12,23,00,32,0.00
2008,12,23,00,33,0.00
2008,12,23,00,34,0.00
2008,12,23,00,35,0.00
2008,12,23,00,36,0.00
2008,12,23,00,37,0.00
2008,12,23,00,38,0.00
2008,12,23,00,39,0.00
2008,12,23,00,40,0.00
2008,12,23,00,41,0.00
2008,12,23,00,42,0.00
2008,12,23,00,43,0.00
2008,12,23,00,44,0.00
2008,12,23,00,45,0.00
2008,12,23,00,46,0.00
2008,12,23,00,47,0.00
2008,12,23,00,48,0.00
2008,12,23,00,49,0.00
2008,12,23,00,50,0.00
2008,12,23,00,51,0.00
2008,12,23,00,52,0.00
2008,12,23,00,53,0.00
2008,12,23,00,54,0.00
2008,12,23,00,55,0.00
2008,12,23,00,56,0.00
2008,12,23,00,57,0.00
2008,12,23,00,58,0.00
2008,12,23,00,59,0.00
2008,12,23,01,00,0.00
2008,12,23,01,01,0.00
2008,12,23,01,02,0.00
2008,12,23,01,03,0.00
2008,12,23,01,04,0.00
2008,12,23,01,05,0.00
2008,12,23,01,06,0.00
2008,12,23,01,07,0.00
2008,12,23,01,08,0.00
2008,12,23,01,09,0.00
2008,12,23,01,10,0.00
2008,12,23,01,11,0.00
2008,12,23,01,12,0.00
2008,12,23,01,13,0.00
2008,12,23,01,14,0.00
2008,12,23,01,15,0.00
2008,12,23,01,16,0.00
2008,12,23,01,17,0.00
2008,12,23,01,18,0.00
2008,12,23,01,19,0.00
2008,12,23,01,20,0.00
2008,12,23,01,21,0.00
2008,12,23,01,22,0.00
2008,12,23,01,23,0.00
2008,12,23,01,24,0.00
2008,12,23,01,25,0.00
2008,12,23,01,26,0.00
2008,12,23,01,27,0.00
2008,12,23,01,28,0.00
2008,12,23,01,29,0.00
2008,12,23,01,30,0.00
2008,12,23,01,31,0.00
2008,12,23,01,32,0.00
2008,12,23,01,33,0.00
2008,12,23,01,34,0.00
2008,12,23,01,35,0.00
2008,12,23,01,36,0.00
2008,12,23,01,37,0.00
2008,12,23,01,38,0.00
2008,12,23,01,39,0.00
2008,12,23,01,40,0.00
2008,12,23,01,41,0.00
2008,12,23,01,42,0.00
2008,12,23,01,43,0.00
2008,12,23,01,44,0.00
2008,12,23,01,45,0.00
2008,12,23,01,46,0.00
2008,12,23,01,47,0.00
2008,12,23,01,48,0.00
2008,12,23,01,49,0.00
2008,12,23,01,50,0.00
2008,12,23,01,51,0.00
2008,12,23,01,52,0.00
2008,12,23,01,53,0.00
2008,12,23,01,54,0.00
2008,12,23,01,55,0.00
2008,12,23,01,56,0.00
2008,12,23,01,57,0.00
2008,12,23,01,58,0.00
2008,12,23,01,59,0.00
2008,12,23,02,00,0.00
2008,12,23,02,01,0.00
2008,12,23,02,02,0.00
2008,12,23,02,03,0.00
2008,12,23,02,04,0.00
2008,12,23,02,05,0.00
2008,12,23,02,06,0.00
2008,12,23,02,07,0.00
2008,12,23,02,08,0.00
2008,12,23,02,09,0.00
2008,12,23,02,10,0.00
2008,12,23,02,11,0.00
2008,12,23,02,12,0.00
2008,12,23,02,13,0.00
2008,12,23,02,14,0.00
2008,12,23,02,15,0.00
2008,12,23,02,16,0.00
2008,12,23,02,17,0.00
2008,12,23,02,18,0.00
2008,12,23,02,19,0.00
2008,12,23,02,20,0.00
2008,12,23,02,21,0.00
2008,12,23,02,22,0.00
2008,12,23,02,23,0.00
2008,12,23,02,24,0.00
2008,12,23,02,25,0.00
2008,12,23,02,26,0.00
2008,12,23,02,27,0.00
2008,12,23,02,28,0.00
2008,12,23,02,29,0.00
2008,12,23,02,30,0.00
2008,12,23,02,31,0.00
2008,12,23,02,32,0.00
2008,12,23,02,33,0.00
2008,12,23,02,34,0.00
2008,12,23,02,35,0.00
2008,12,23,02,36,0.00
2008,12,23,02,37,0.00
2008,12,23,02,38,0.00
2008,12,23,02,39,0.00
2008,12,23,02,40,0.00
2008,12,23,02,41,0.00
2008,12,23,02,42,0.00
2008,12,23,02,43,0.00
2008,12,23,02,44,0.00
2008,12,23,02,45,0.00
2008,12,23,02,46,0.00
2008,12,23,02,47,0.00
2008,12,23,02,48,0.00
2008,12,23,02,49,0.00
2008,12,23,02,50,0.00
2008,12,23,02,51,0.00
2008,12,23,02,52,0.00
2008,12,23,02,53,0.00
2008,12,23,02,54,0.00
2008,12,23,02,55,0.00
2008,12,23,02,56,0.00
2008,12,23,02,57,0.00
2008,12,23,02,58,0.00
2008,12,23,02,59,0.00
2008,12,23,03,00,0.00
2008,12,23,03,01,0.00
2008,12,23,03,02,0.00
2008,12,23,03,03,0.00
2008,12,23,03,04,0.00
2008,12,23,03,05,0.00
2008,12,23,03,06,0.00
2008,12,23,03,07,0.00
2008,12,23,03,08,0.00
2008,12,23,03,09,0.00
2008,12,23,03,10,0.00
2008,12,23,03,11,0.00
2008,12,23,03,12,0.00
2008,12,23,03,13,0.00
2008,12,23,03,14,0.00
2008,12,23,03,15,0.00
2008,12,23,03,16,0.00
2008,12,23,03,17,0.00
2008,12,23,03,18,0.00
2008,12,23,03,19,0.00
2008,12,23,03,20,0.00
2008,12,23,03,21,0.00
2008,12,23,03,22,0.00
2008,12,23,03,23,0.00
2008,12,23,03,24,0.00
2008,12,23,03,25,0.00
2008,12,23,03,26,0.00
2008,12,23,03,27,0.00
2008,12,23,03,28,0.00
2008,12,23,03,29,0.00
2008,12,23,03,30,0.00
2008,12,23,03,31,0.00
2008,12,23,03,32,0.00
2008,12,23,03,33,0.00
2008,12,23,03,34,0.00
2008,12,23,03,35,0.00
2008,12,23,03,36,0.00
2008,12,23,03,37,0.00
2008,12,23,03,38,0.00
2008,12,23,03,39,0.00
2008,12,23,03,40,0.00
2008,12,23,03,41,0.00
2008,12,23,03,42,0.00
2008,12,23,03,43,0.00
2008,12,23,03,44,0.00
2008,12,23,03,45,0.00
2008,12,23,03,46,0.00
2008,12,23,03,47,0.00
2008,12,23,03,48,0.00
2008,12,23,03,49,0.00
2008,12,23,03,50,0.00
2008,12,23,03,51,0.00
2008,12,23,03,52,0.00
2008,12,23,03,53,0.00
2008,12,23,03,54,0.00
2008,12,23,03,55,0.00
2008,12,23,03,56,0.00
2008,12,23,03,57,0.00
2008,12,23,03,58,0.00
2008,12,23,03,59,0.00
2008,12,23,04,00,0.00
2008,12,23,04,01,0.00
2008,12,23,04,02,0.00
2008,12,23,04,03,0.00
2008,12,23,04,04,0.00
2008,12,23,04,05,0.00
2008,12,23,04,06,0.00
2008,12,23,04,07,0.00
2008,12,23,04,08,0.00
2008,12,23,04,09,0.00
2008,12,23,04,10,0.00
2008,12,23,04,11,0.00
2008,12,23,04,12,0.00
2008,12,23,04,13,0.00
2008,12,23,04,14,0.00
2008,12,23,04,15,0.00
2008,12,23,04,16,0.00
2008,12,23,04,17,0.00
2008,12,23,04,18,0.00
2008,12,23,04,19,0.00
2008,12,23,04,20,0.00
2008,12,23,04,21,0.00
2008,12,23,04,22,0.00
2008,12,23,04,23,0.00
2008,12,23,04,24,0.00
2008,12,23,04,25,0.00
2008,12,23,04,26,0.00
2008,12,23,04,27,0.00
2008,12,23,04,28,0.00
2008,12,23,04,29,0.00
2008,12,23,04,30,0.00
2008,12,23,04,31,0.00
2008,12,23,04,32,0.00
2008,12,23,04,33,0.00
2008,12,23,04,34,0.00
2008,12,23,04,35,0.00
2008,12,23,04,36,0.00
2008,12,23,04,37,0.00
2008,12,23,04,38,0.00
2008,12,23,04,39,0.00
2008,12,23,04,40,0.00
2008,12,23,04,41,0.00
2008,12,23,04,42,0.00
2008,12,23,04,43,0.00
2008,12,23,04,44,0.00
2008,12,23,04,45,0.00
2008,12,23,04,46,0.00
2008,12,23,04,47,0.00
2008,12,23,04,48,0.00
2008,12,23,04,49,0.00
2008,12,23,04,50,0.00
2008,12,23,04,51,0.00
2008,12,23,04,52,0.00
2008,12,23,04,53,0.00
2008,12,23,04,54,0.00
2008,12,23,04,55,0.00
2008,12,23,04,56,0.00
2008,12,23,04,57,0.00
2008,12,23,04,58,0.00
2008,12,23,04,59,0.00
2008,12,23,05,00,0.00
2008,12,23,05,01,0.00
2008,12,23,05,02,0.00
2008,12,23,05,03,0.00
2008,12,23,05,04,0.00
2008,12,23,05,05,0.00
2008,12,23,05,06,0.00
2008,12,23,05,07,0.00
2008,12,23,05,08,0.00
2008,12,23,05,09,0.00
2008,12,23,05,10,0.00
2008,12,23,05,11,0.00
2008,12,23,05,12,0.00
2008,12,23,05,13,0.00
2008,12,23,05,14,0.00
2008,12,23,05,15,0.00
2008,12,23,05,16,0.00
2008,12,23,05,17,0.00
2008,12,23,05,18,0.00
2008,12,23,05,19,0.00
2008,12,23,05,20,0.00
2008,12,23,05,21,0.00
2008,12,23,05,22,0.00
2008,12,23,05,23,0.00
2008,12,23,05,24,0.00
2008,12,23,05,25,0.00
2008,12,23,05,26,0.00
2008,12,23,05,27,0.00
2008,12,23,05,28,0.00
2008,12,23,05,29,0.00
2008,12,23,05,30,0.00
2008,12,23,05,31,0.00
2008,12,23,05,32,0.00
2008,12,23,05,33,0.00
2008,12,23,05,34,0.00
2008,12,23,05,35,0.00
2008,12,23,05,36,0.00
2008,12,23,05,37,0.00
2008,12,23,05,38,0.00
2008,12,23,05,39,0.00
2008,12,23,05,40,0.00
2008,12,23,05,41,0.00
2008,12,23,05,42,0.00
2008,12,23,05,43,0.00
2008,12,23,05,44,0.00
2008,12,23,05,45,0.00
2008,12,23,05,46,0.00
2008,12,23,05,47,0.00
2008,12,23,05,48,0.00
2008,12,23,05,49,0.00
2008,12,23,05,50,0.00
2008,12,23,05,51,0.00
2008,12,23,05,52,0.00
2008,12,23,05,53,0.00
2008,12,23,05,54,0.00
2008,12,23,05,55,0.00
2008,12,23,05,56,0.00
2008,12,23,05,57,0.00
2008,12,23,05,58,0.00
2008,12,23,05,59,0.00
2008,12,23,06,00,0.00
2008,12,23,06,01,0.00
2008,12,23,06,02,0.00
2008,12,23,06,03,0.00
2008,12,23,06,04,0.00
2008,12,23,06,05,0.00
2008,12,23,06,06,0.00
2008,12,23,06,07,0.00
2008,12,23,06,08,0.00
2008,12,23,06,09,0.00
2008,12,23,06,10,0.00
2008,12,23,06,11,0.00
2008,12,23,06,12,0.00
2008,12,23,06,13,0.00
2008,12,23,06,14,0.00
2008,12,23,06,15,0.00
2008,12,23,06,16,0.00
2008,12,23,06,17,0.00
2008,12,23,06,18,0.00
2008,12,23,06,19,0.00
2008,12,23,06,20,0.00
2008,12,23,06,21,0.00
2008,12,23,06,22,0.00
2008,12,23,06,23,0.00
2008,12,23,06,24,0.00
2008,12,23,06,25,0.00
2008,12,23,06,26,0.00
2008,12,23,06,27,0.00
2008,12,23,06,28,0.00
2008,12,23,06,29,0.00
2008,12,23,06,30,0.00
2008,12,23,06,31,0.00
2008,12,23,06,32,0.00
2008,12,23,06,33,0.00
2008,12,23,06,34,0.00
2008,12,23,06,35,0.00
2008,12,23,06,36,0.00
2008,12,23,06,37,0.00
2008,12,23,06,38,0.00
2008,12,23,06,39,0.00
2008,12,23,06,40,0.00
2008,12,23,06,41,0.00
2008,12,23,06,42,0.00
2008,12,23,06,43,0.00
2008,12,23,06,44,0.00
2008,12,23,06,45,0.00
2008,12,23,06,46,0.00
2008,12,23,06,47,0.00
2008,12,23,06,48,0.00
2008,12,23,06,49,0.00
2008,12,23,06,50,0.00
2008,12,23,06,51,0.00
2008,12,23,06,52,0.00
2008,12,23,06,53,0.00
2008,12,23,06,54,0.00
2008,12,23,06,55,0.00
2008,12,23,06,56,0.00
2008,12,23,06,57,0.00
2008,12,23,06,58,0.00
2008,12,23,06,59,0.00
2008,12,23,07,00,0.00
2008,12,23,07,01,0.00
2008,12,23,07,02,0.00
2008,12,23,07,03,0.00
2008,12,23,07,04,0.00
2008,12,23,07,05,0.00
2008,12,23,07,06,0.00
2008,12,23,07,07,0.00
2008,12,23,07,08,0.00
2008,12,23,07,09,0.00
2008,12,23,07,10,0.00
2008,12,23,07,11,0.00
2008,12,23,07,12,0.00
2008,12,23,07,13,0.00
2008,12,23,07,14,0.00
2008,12,23,07,15,0.00
2008,12,23,07,16,0.00
2008,12,23,07,17,0.00
2008,12,23,07,18,0.00
2008,12,23,07,19,0.00
2008,12,23,07,20,0.00
2008,12,23,07,21,0.00
2008,12,23,07,22,0.00
2008,12,23,07,23,0.00
2008,12,23,07,24,0.00
2008,12,23,07,25,0.00
2008,12,23,07,26,0.00
2008,12,23,07,27,0.00
2008,12,23,07,28,0.00
2008,12,23,07,29,0.00
2008,12,23,07,30,0.00
2008,12,23,07,31,0.00
2008,12,23,07,32,0.00
2008,12,23,07,33,0.00
2008,12,23,07,34,0.00
2008,12,23,07,35,0.00
2008,12,23,07,36,0.00
2008,12,23,07,37,0.00
2008,12,23,07,38,0.00
2008,12,23,07,39,0.00
2008,12,23,07,40,0.00
2008,12,23,07,41,0.00
2008,12,23,07,42,0.00
2008,12,23,07,43,0.00
2008,12,23,07,44,0.00
2008,12,23,07,45,0.00
2008,12,23,07,46,0.00
2008,12,23,07,47,0.00
2008,12,23,07,48,0.00
2008,12,23,07,49,0.00
2008,12,23,07,50,0.00
2008,12,23,07,51,0.00
2008,12,23,07,52,0.00
2008,12,23,07,53,0.00
2008,12,23,07,54,0.00
2008,12,23,07,55,0.00
2008,12,23,07,56,0.00
2008,12,23,07,57,0.00
2008,12,23,07,58,0.00
2008,12,23,07,59,0.00
2008,12,23,08,00,0.00
2008,12,23,08,01,0.00
2008,12,23,08,02,0.00
2008,12,23,08,03,0.00
2008,12,23,08,04,0.00
2008,12,23,08,05,0.00
2008,12,23,08,06,0.00
2008,12,23,08,07,0.00
2008,12,23,08,08,0.00
2008,12,23,08,09,0.00
2008,12,23,08,10,0.00
2008,12,23,08,11,0.00
2008,12,23,08,12,0.00
2008,12,23,08,13,0.00
2008,12,23,08,14,0.00
2008,12,23,08,15,0.00
2008,12,23,08,16,0.00
2008,12,23,08,17,0.00
2008,12,23,08,18,0.00
2008,12,23,08,19,0.00
2008,12,23,08,20,0.00
2008,12,23,08,21,0.00
2008,12,23,08,22,0.00
2008,12,23,08,23,0.00
2008,12,23,08,24,0.00
2008,12,23,08,25,0.00
2008,12,23,08,26,0.00
2008,12,23,08,27,0.00
2008,12,23,08,28,0.00
2008,12,23,08,29,0.00
2008,12,23,08,30,0.00
2008,12,23,08,31,0.00
2008,12,23,08,32,0.00
2008,12,23,08,33,0.30
2008,12,23,08,34,5.00
2008,12,23,08,35,5.00
2008,12,23,08,36,5.00
2008,12,23,08,37,5.00
2008,12,23,08,38,5.00
2008,12,23,08,39,5.00
2008,12,23,08,40,5.00
2008,12,23,08,41,5.00
2008,12,23,08,42,5.00
2008,12,23,08,43,5.00
2008,12,23,08,44,5.00
2008,12,23,08,45,5.00
2008,12,23,08,46,5.60
2008,12,23,08,47,7.00
2008,12,23,08,48,7.00
2008,12,23,08,49,7.00
2008,12,23,08,50,7.00
2008,12,23,08,51,7.00
2008,12,23,08,52,7.00
2008,12,23,08,53,7.00
2008,12,23,08,54,7.00
2008,12,23,08,55,7.00
2008,12,23,08,56,8.90
2008,12,23,08,57,9.00
2008,12,23,08,58,9.00
2008,12,23,08,59,9.00
2008,12,23,09,00,9.00
2008,12,23,09,01,9.00
2008,12,23,09,02,9.00
2008,12,23,09,03,9.00
2008,12,23,09,04,9.00
2008,12,23,09,05,9.00
2008,12,23,09,06,9.00
2008,12,23,09,07,9.00
2008,12,23,09,08,10.70
2008,12,23,09,09,11.00
2008,12,23,09,10,11.00
2008,12,23,09,11,11.00
2008,12,23,09,12,11.00
2008,12,23,09,13,11.00
2008,12,23,09,14,11.00
2008,12,23,09,15,11.20
2008,12,23,09,16,12.00
2008,12,23,09,17,12.00
2008,12,23,09,18,12.00
2008,12,23,09,19,12.00
2008,12,23,09,20,12.00
2008,12,23,09,21,12.00
2008,12,23,09,22,12.00
2008,12,23,09,23,12.00
2008,12,23,09,24,12.00
2008,12,23,09,25,12.00
2008,12,23,09,26,14.00
2008,12,23,09,27,14.00
2008,12,23,09,28,14.00
2008,12,23,09,29,14.00
2008,12,23,09,30,14.00
2008,12,23,09,31,14.00
2008,12,23,09,32,14.00
2008,12,23,09,33,14.60
2008,12,23,09,34,16.00
2008,12,23,09,35,16.00
2008,12,23,09,36,16.00
2008,12,23,09,37,16.00
2008,12,23,09,38,16.00
2008,12,23,09,39,16.00
2008,12,23,09,40,16.00
2008,12,23,09,41,16.00
2008,12,23,09,42,16.00
2008,12,23,09,43,16.00
2008,12,23,09,44,16.00
2008,12,23,09,45,16.00
2008,12,23,09,46,17.00
2008,12,23,09,47,18.00
2008,12,23,09,48,18.00
2008,12,23,09,49,18.00
2008,12,23,09,50,18.00
2008,12,23,09,51,18.30
2008,12,23,09,52,19.00
2008,12,23,09,53,19.00
2008,12,23,09,54,19.00
2008,12,23,09,55,19.00
2008,12,23,09,56,19.00
2008,12,23,09,57,19.60
2008,12,23,09,58,21.00
2008,12,23,09,59,21.00
2008,12,23,10,00,21.00
2008,12,23,10,01,21.00
2008,12,23,10,02,21.00
2008,12,23,10,03,21.70
2008,12,23,10,04,23.00
2008,12,23,10,05,23.00
2008,12,23,10,06,23.00
2008,12,23,10,07,23.10
2008,12,23,10,08,25.00
2008,12,23,10,09,25.00
2008,12,23,10,10,25.00
2008,12,23,10,11,25.60
2008,12,23,10,12,26.00
2008,12,23,10,13,26.00
2008,12,23,10,14,26.00
2008,12,23,10,15,26.00
2008,12,23,10,16,26.00
2008,12,23,10,17,26.00
2008,12,23,10,18,26.00
2008,12,23,10,19,26.00
2008,12,23,10,20,26.00
2008,12,23,10,21,26.90
2008,12,23,10,22,28.00
2008,12,23,10,23,28.00
2008,12,23,10,24,28.00
2008,12,23,10,25,28.00
2008,12,23,10,26,28.00
2008,12,23,10,27,28.00
2008,12,23,10,28,26.90
2008,12,23,10,29,26.00
2008,12,23,10,30,26.00
2008,12,23,10,31,26.40
2008,12,23,10,32,28.00
2008,12,23,10,33,28.00
2008,12,23,10,34,28.00
2008,12,23,10,35,28.00
2008,12,23,10,36,28.00
2008,12,23,10,37,28.00
2008,12,23,10,38,27.40
2008,12,23,10,39,26.00
2008,12,23,10,40,26.00
2008,12,23,10,41,26.00
2008,12,23,10,42,26.00
2008,12,23,10,43,26.00
2008,12,23,10,44,26.00
2008,12,23,10,45,26.00
2008,12,23,10,46,26.00
2008,12,23,10,47,26.00
2008,12,23,10,48,26.00
2008,12,23,10,49,26.00
2008,12,23,10,50,26.80
2008,12,23,10,51,28.00
2008,12,23,10,52,29.40
2008,12,23,10,53,30.00
2008,12,23,10,54,32.00
2008,12,23,10,55,32.00
2008,12,23,10,56,32.00
2008,12,23,10,57,32.60
2008,12,23,10,58,33.00
2008,12,23,10,59,33.00
2008,12,23,11,00,32.00
2008,12,23,11,01,32.00
2008,12,23,11,02,31.10
2008,12,23,11,03,31.20
2008,12,23,11,04,32.00
2008,12,23,11,05,32.00
2008,12,23,11,06,32.00
2008,12,23,11,07,31.50
2008,12,23,11,08,30.00
2008,12,23,11,09,30.00
2008,12,23,11,10,30.00
2008,12,23,11,11,30.00
2008,12,23,11,12,32.00
2008,12,23,11,13,32.00
2008,12,23,11,14,32.00
2008,12,23,11,15,32.00
2008,12,23,11,16,32.00
2008,12,23,11,17,31.90
2008,12,23,11,18,30.40
2008,12,23,11,19,32.00
2008,12,23,11,20,30.90
2008,12,23,11,21,30.00
2008,12,23,11,22,28.50
2008,12,23,11,23,28.00
2008,12,23,11,24,27.60
2008,12,23,11,25,26.00
2008,12,23,11,26,26.00
2008,12,23,11,27,26.00
2008,12,23,11,28,26.00
2008,12,23,11,29,25.00
2008,12,23,11,30,24.50
2008,12,23,11,31,23.00
2008,12,23,11,32,23.00
2008,12,23,11,33,23.00
2008,12,23,11,34,23.00
2008,12,23,11,35,23.00
2008,12,23,11,36,23.00
2008,12,23,11,37,23.00
2008,12,23,11,38,23.00
2008,12,23,11,39,23.00
2008,12,23,11,40,21.40
2008,12,23,11,41,21.20
2008,12,23,11,42,23.60
2008,12,23,11,43,25.00
2008,12,23,11,44,25.00
2008,12,23,11,45,23.50
2008,12,23,11,46,23.00
2008,12,23,11,47,23.00
2008,12,23,11,48,23.00
2008,12,23,11,49,23.00
2008,12,23,11,50,23.00
2008,12,23,11,51,23.00
2008,12,23,11,52,23.00
2008,12,23,11,53,23.00
2008,12,23,11,54,23.00
2008,12,23,11,55,23.00
2008,12,23,11,56,23.00
2008,12,23,11,57,24.70
2008,12,23,11,58,25.00
2008,12,23,11,59,25.00
2008,12,23,12,00,25.00
2008,12,23,12,01,25.00
2008,12,23,12,02,23.60
2008,12,23,12,03,24.50
2008,12,23,12,04,25.00
2008,12,23,12,05,25.00
2008,12,23,12,06,25.00
2008,12,23,12,07,25.50
2008,12,23,12,08,27.30
2008,12,23,12,09,29.80
2008,12,23,12,10,33.00
2008,12,23,12,11,33.00
2008,12,23,12,12,33.70
2008,12,23,12,13,35.00
2008,12,23,12,14,33.50
2008,12,23,12,15,33.00
2008,12,23,12,16,33.00
2008,12,23,12,17,33.00
2008,12,23,12,18,33.00
2008,12,23,12,19,33.00
2008,12,23,12,20,33.00
2008,12,23,12,21,33.00
2008,12,23,12,22,33.00
2008,12,23,12,23,33.00
2008,12,23,12,24,33.00
2008,12,23,12,25,33.00
2008,12,23,12,26,34.60
2008,12,23,12,27,35.00
2008,12,23,12,28,38.90
2008,12,23,12,29,40.70
2008,12,23,12,30,42.90
2008,12,23,12,31,45.40
2008,12,23,12,32,46.80
2008,12,23,12,33,48.90
2008,12,23,12,34,51.00
2008,12,23,12,35,51.00
2008,12,23,12,36,51.00
2008,12,23,12,37,51.00
2008,12,23,12,38,51.00
2008,12,23,12,39,49.30
2008,12,23,12,40,49.00
2008,12,23,12,41,48.40
2008,12,23,12,42,47.00
2008,12,23,12,43,48.30
2008,12,23,12,44,47.50
2008,12,23,12,45,47.10
2008,12,23,12,46,49.00
2008,12,23,12,47,49.00
2008,12,23,12,48,49.00
2008,12,23,12,49,49.00
2008,12,23,12,50,49.00
2008,12,23,12,51,49.00
2008,12,23,12,52,49.00
2008,12,23,12,53,49.00
2008,12,23,12,54,47.90
2008,12,23,12,55,47.00
2008,12,23,12,56,47.00
2008,12,23,12,57,49.00
2008,12,23,12,58,49.00
2008,12,23,12,59,49.00
2008,12,23,13,00,49.00
2008,12,23,13,01,49.00
2008,12,23,13,02,47.10
2008,12,23,13,03,45.80
2008,12,23,13,04,43.50
2008,12,23,13,05,41.10
2008,12,23,13,06,39.50
2008,12,23,13,07,37.40
2008,12,23,13,08,35.10
2008,12,23,13,09,33.00
2008,12,23,13,10,33.00
2008,12,23,13,11,33.00
2008,12,23,13,12,33.00
2008,12,23,13,13,33.00
2008,12,23,13,14,34.90
2008,12,23,13,15,35.30
2008,12,23,13,16,37.00
2008,12,23,13,17,37.00
2008,12,23,13,18,37.00
2008,12,23,13,19,37.00
2008,12,23,13,20,37.10
2008,12,23,13,21,38.70
2008,12,23,13,22,36.20
2008,12,23,13,23,33.90
2008,12,23,13,24,33.00
2008,12,23,13,25,34.70
2008,12,23,13,26,37.10
2008,12,23,13,27,38.50
2008,12,23,13,28,36.20
2008,12,23,13,29,33.90
2008,12,23,13,30,33.00
2008,12,23,13,31,30.30
2008,12,23,13,32,25.90
2008,12,23,13,33,24.10
2008,12,23,13,34,20.30
2008,12,23,13,35,19.00
2008,12,23,13,36,19.00
2008,12,23,13,37,19.00
2008,12,23,13,38,18.90
2008,12,23,13,39,18.00
2008,12,23,13,40,18.00
2008,12,23,13,41,18.00
2008,12,23,13,42,18.80
2008,12,23,13,43,20.90
2008,12,23,13,44,21.30
2008,12,23,13,45,23.60
2008,12,23,13,46,25.50
2008,12,23,13,47,27.00
2008,12,23,13,48,31.10
2008,12,23,13,49,32.90
2008,12,23,13,50,35.00
2008,12,23,13,51,35.00
2008,12,23,13,52,34.00
2008,12,23,13,53,31.00
2008,12,23,13,54,28.40
2008,12,23,13,55,26.30
2008,12,23,13,56,25.80
2008,12,23,13,57,25.00
2008,12,23,13,58,25.50
2008,12,23,13,59,26.00
2008,12,23,14,00,27.60
2008,12,23,14,01,28.00
2008,12,23,14,02,28.00
2008,12,23,14,03,28.00
2008,12,23,14,04,28.00
2008,12,23,14,05,28.00
2008,12,23,14,06,28.00
2008,12,23,14,07,26.30
2008,12,23,14,08,28.00
2008,12,23,14,09,28.00
2008,12,23,14,10,29.10
2008,12,23,14,11,30.00
2008,12,23,14,12,28.20
2008,12,23,14,13,27.80
2008,12,23,14,14,25.70
2008,12,23,14,15,25.00
2008,12,23,14,16,23.80
2008,12,23,14,17,23.00
2008,12,23,14,18,23.00
2008,12,23,14,19,23.00
2008,12,23,14,20,23.00
2008,12,23,14,21,23.80
2008,12,23,14,22,25.00
2008,12,23,14,23,25.00
2008,12,23,14,24,25.00
2008,12,23,14,25,22.80
2008,12,23,14,26,21.00
2008,12,23,14,27,20.10
2008,12,23,14,28,19.00
2008,12,23,14,29,20.60
2008,12,23,14,30,19.10
2008,12,23,14,31,18.80
2008,12,23,14,32,18.00
2008,12,23,14,33,18.50
2008,12,23,14,34,19.00
2008,12,23,14,35,19.00
2008,12,23,14,36,20.90
2008,12,23,14,37,21.30
2008,12,23,14,38,23.00
2008,12,23,14,39,22.10
2008,12,23,14,40,19.70
2008,12,23,14,41,19.00
2008,12,23,14,42,19.00
2008,12,23,14,43,19.00
2008,12,23,14,44,18.60
2008,12,23,14,45,18.00
2008,12,23,14,46,16.70
2008,12,23,14,47,17.80
2008,12,23,14,48,16.00
2008,12,23,14,49,16.00
2008,12,23,14,50,16.00
2008,12,23,14,51,16.00
2008,12,23,14,52,16.00
2008,12,23,14,53,16.00
2008,12,23,14,54,13.90
2008,12,23,14,55,12.00
2008,12,23,14,56,12.00
2008,12,23,14,57,13.00
2008,12,23,14,58,14.00
2008,12,23,14,59,15.80
2008,12,23,15,00,16.00
2008,12,23,15,01,16.80
2008,12,23,15,02,19.80
2008,12,23,15,03,21.00
2008,12,23,15,04,19.40
2008,12,23,15,05,18.10
2008,12,23,15,06,16.30
2008,12,23,15,07,18.30
2008,12,23,15,08,19.00
2008,12,23,15,09,18.40
2008,12,23,15,10,18.00
2008,12,23,15,11,18.00
2008,12,23,15,12,18.10
2008,12,23,15,13,19.60
2008,12,23,15,14,21.90
2008,12,23,15,15,24.10
2008,12,23,15,16,25.70
2008,12,23,15,17,24.90
2008,12,23,15,18,23.00
2008,12,23,15,19,23.70
2008,12,23,15,20,25.50
2008,12,23,15,21,26.00
2008,12,23,15,22,25.30
2008,12,23,15,23,24.90
2008,12,23,15,24,23.00
2008,12,23,15,25,23.00
2008,12,23,15,26,23.00
2008,12,23,15,27,23.00
2008,12,23,15,28,21.20
2008,12,23,15,29,19.20
2008,12,23,15,30,19.40
2008,12,23,15,31,21.00
2008,12,23,15,32,21.00
2008,12,23,15,33,19.60
2008,12,23,15,34,16.30
2008,12,23,15,35,14.00
2008,12,23,15,36,13.60
2008,12,23,15,37,12.00
2008,12,23,15,38,12.00
2008,12,23,15,39,12.00
2008,12,23,15,40,11.10
2008,12,23,15,41,10.80
2008,12,23,15,42,9.00
2008,12,23,15,43,9.00
2008,12,23,15,44,9.00
2008,12,23,15,45,9.00
2008,12,23,15,46,7.40
2008,12,23,15,47,7.00
2008,12,23,15,48,6.40
2008,12,23,15,49,5.00
2008,12,23,15,50,5.00
2008,12,23,15,51,5.00
2008,12,23,15,52,5.00
2008,12,23,15,53,0.20
2008,12,23,15,54,0.00
2008,12,23,15,55,0.00
2008,12,23,15,56,0.00
2008,12,23,15,57,0.00
2008,12,23,15,58,0.00
2008,12,23,15,59,0.00
2008,12,23,16,00,0.00
2008,12,23,16,01,0.00
2008,12,23,16,02,0.00
2008,12,23,16,03,0.00
2008,12,23,16,04,0.00
2008,12,23,16,05,0.00
2008,12,23,16,06,0.00
2008,12,23,16,07,0.00
2008,12,23,16,08,0.00
2008,12,23,16,09,0.00
2008,12,23,16,10,0.00
2008,12,23,16,11,0.00
2008,12,23,16,12,0.00
2008,12,23,16,13,0.00
2008,12,23,16,14,0.00
2008,12,23,16,15,0.00
2008,12,23,16,16,0.00
2008,12,23,16,17,0.00
2008,12,23,16,18,0.00
2008,12,23,16,19,0.00
2008,12,23,16,20,0.00
2008,12,23,16,21,0.00
2008,12,23,16,22,0.00
2008,12,23,16,23,0.00
2008,12,23,16,24,0.00
2008,12,23,16,25,0.00
2008,12,23,16,26,0.00
2008,12,23,16,27,0.00
2008,12,23,16,28,0.00
2008,12,23,16,29,0.00
2008,12,23,16,30,0.00
2008,12,23,16,31,0.00
2008,12,23,16,32,0.00
2008,12,23,16,33,0.00
2008,12,23,16,34,0.00
2008,12,23,16,35,0.00
2008,12,23,16,36,0.00
2008,12,23,16,37,0.00
2008,12,23,16,38,0.00
2008,12,23,16,39,0.00
2008,12,23,16,40,0.00
2008,12,23,16,41,0.00
2008,12,23,16,42,0.00
2008,12,23,16,43,0.00
2008,12,23,16,44,0.00
2008,12,23,16,45,0.00
2008,12,23,16,46,0.00
2008,12,23,16,47,0.00
2008,12,23,16,48,0.00
2008,12,23,16,49,0.00
2008,12,23,16,50,0.00
2008,12,23,16,51,0.00
2008,12,23,16,52,0.00
2008,12,23,16,53,0.00
2008,12,23,16,54,0.00
2008,12,23,16,55,0.00
2008,12,23,16,56,0.00
2008,12,23,16,57,0.00
2008,12,23,16,58,0.00
2008,12,23,16,59,0.00
2008,12,23,17,00,0.00
2008,12,23,17,01,0.00
2008,12,23,17,02,0.00
2008,12,23,17,03,0.00
2008,12,23,17,04,0.00
2008,12,23,17,05,0.00
2008,12,23,17,06,0.00
2008,12,23,17,07,0.00
2008,12,23,17,08,0.00
2008,12,23,17,09,0.00
2008,12,23,17,10,0.00
2008,12,23,17,11,0.00
2008,12,23,17,12,0.00
2008,12,23,17,13,0.00
2008,12,23,17,14,0.00
2008,12,23,17,15,0.00
2008,12,23,17,16,0.00
2008,12,23,17,17,0.00
2008,12,23,17,18,0.00
2008,12,23,17,19,0.00
2008,12,23,17,20,0.00
2008,12,23,17,21,0.00
2008,12,23,17,22,0.00
2008,12,23,17,23,0.00
2008,12,23,17,24,0.00
2008,12,23,17,25,0.00
2008,12,23,17,26,0.00
2008,12,23,17,27,0.00
2008,12,23,17,28,0.00
2008,12,23,17,29,0.00
2008,12,23,17,30,0.00
2008,12,23,17,31,0.00
2008,12,23,17,32,0.00
2008,12,23,17,33,0.00
2008,12,23,17,34,0.00
2008,12,23,17,35,0.00
2008,12,23,17,36,0.00
2008,12,23,17,37,0.00
2008,12,23,17,38,0.00
2008,12,23,17,39,0.00
2008,12,23,17,40,0.00
2008,12,23,17,41,0.00
2008,12,23,17,42,0.00
2008,12,23,17,43,0.00
2008,12,23,17,44,0.00
2008,12,23,17,45,0.00
2008,12,23,17,46,0.00
2008,12,23,17,47,0.00
2008,12,23,17,48,0.00